Temperature
6 5 5 5 6 7 7 7 7 7 8 8 7 7 8 8 9 8 9 9 9 10 10 10 10 10 11 11 11 10 10 10 10 10 10 10 10 9 9 10 10 10 10 10
4 4 6 6 6 6 6 6 6 7 8 8 7 7 7 8 8 8 8 8 8 9 9 9 9 10 10 10 10 10 10 10 10 10 10 9 9 9 9 9 9 9 9 9
4 5 6 6 6 6 6 5 6 6 7 7 7 6 6 7 7 7 7 7 7 8 8 8 9 9 9 9 9 9 9 9 9 9 9 9 9 9 9 9 9 9 9 9
4 5 6 6 5 6 5 6 6 6 5 5 6 5 5 5 5 5 5 6 6 7 7 7 8 8 8 9 8 8 9 9 9 9 9 9 9 9 9 8 8 8 8 9
3 5 5 5 5 5 5 6 6 6 5 4 5 4 4 5 5 5 4 5 5 6 6 6 7 7 8 8 8 8 8 8 8 8 8 8 8 8 8 8 8 8 8 8
3 4 5 5 5 5 5 5 5 4 4 4 4 4 4 4 4 4 4 4 4 5 5 6 6 7 7 7 7 7 7 7 8 8 8 8 8 8 8 8 8 8 8 8
2 3 4 5 4 4 4 3 3 3 3 4 4 4 3 3 4 4 4 4 4 4 4 5 5 6 6 6 6 7 7 7 7 7 7 7 7 7 7 7 7 7 7 7
1 2 3 3 4 3 3 3 3 3 3 3 4 3 3 3 3 4 4 3 3 3 3 4 4 5 5 5 5 6 6 6 6 6 7 7 7 7 7 7 7 7 7 7
0 1 3 3 3 4 3 3 3 2 2 2 3 3 3 3 2 2 2 2 2 2 3 3 3 4 4 4 5 5 5 5 5 6 6 6 6 6 6 6 6 6 6 6
-0 -0 1 2 3 3 3 2 2 2 2 2 2 2 2 2 1 1 1 1 2 2 2 2 3 3 3 4 4 4 4 5 5 5 5 5 6 6 6 6 6 6 6 6
-0 -1 -0 1 1 1 1 1 1 1 1 1 1 1 2 1 1 1 1 1 1 1 1 2 2 2 3 3 3 3 3 4 4 4 4 4 5 5 5 5 5 5 5 5
-1 -2 -1 -0 1 1 1 0 0 1 0 0 0 1 1 1 1 1 0 0 0 0 1 1 1 1 2 2 2 3 3 3 3 3 4 4 4 4 4 5 5 5 5 5
-1 -2 -2 -1 -0 -0 -0 -0 -0 -0 -1 -1 -0 0 0 -0 -0 -0 -0 -0 -1 -0 -0 0 0 0 1 1 1 2 2 2 2 3 3 4 4 4 4 4 4 4 4 4
-0 -2 -2 -2 -1 -2 -1 -1 -1 -1 -2 -2 -1 -1 -1 -1 -1 -1 -1 -1 -1 -1 -1 -1 -0 -0 0 0 1 1 1 2 2 2 3 3 3 3 4 4 4 4 4 4
-2 -3 -3 -2 -1 -1 -2 -2 -2 -2 -2 -2 -2 -1 -1 -2 -2 -2 -2 -2 -2 -2 -2 -1 -1 -1 -1 -0 0 0 1 1 1 2 2 2 2 3 3 3 3 3 3 3
-3 -3 -3 -2 -1 -1 -2 -2 -2 -2 -2 -2 -2 -2 -2 -2 -2 -2 -2 -2 -3 -3 -2 -2 -2 -2 -1 -1 -1 -0 0 0 0 1 1 2 2 2 2 3 3 3 3 3
-4 -3 -3 -3 -2 -2 -3 -3 -3 -3 -3 -3 -3 -3 -3 -3 -3 -3 -3 -3 -3 -3 -3 -3 -3 -3 -2 -2 -1 -1 -1 -0 -0 0 1 1 1 1 2 2 2 2 2 3
-4 -4 -4 -3 -3 -4 -3 -3 -3 -3 -3 -3 -3 -3 -3 -3 -3 -3 -3 -3 -3 -3 -3 -3 -3 -3 -3 -2 -2 -2 -1 -1 -0 -0 0 0 1 1 1 1 1 2 2 2
-4 -4 -4 -4 -4 -4 -3 -3 -4 -4 -4 -4 -4 -4 -4 -3 -3 -3 -3 -3 -3 -3 -3 -3 -3 -3 -3 -3 -2 -2 -2 -1 -1 -1 -0 0 0 0 0 1 1 1 1 2
-4 -4 -5 -5 -5 -5 -4 -4 -3 -3 -4 -4 -4 -4 -4 -4 -4 -4 -4 -4 -4 -4 -4 -4 -4 -3 -3 -3 -3 -2 -2 -2 -1 -1 -1 -1 -0 -0 -0 0 0 1 1 1
-5 -5 -6 -5 -5 -5 -5 -4 -3 -5 -5 -4 -4 -4 -4 -5 -5 -4 -4 -4 -4 -4 -4 -4 -4 -4 -3 -3 -3 -3 -2 -2 -2 -2 -1 -1 -1 -1 -1 -0 -0 -0 0 0
-6 -6 -6 -6 -6 -6 -5 -5 -5 -5 -5 -5 -5 -5 -5 -5 -5 -4 -5 -5 -5 -5 -4 -4 -4 -4 -4 -4 -4 -3 -3 -3 -3 -2 -2 -2 -1 -1 -1 -1 -1 -1 -1 -1
-7 -7 -7 -7 -6 -5 -5 -5 -5 -5 -5 -5 -5 -5 -5 -5 -5 -5 -5 -5 -5 -5 -5 -5 -5 -4 -4 -4 -4 -4 -4 -4 -3 -3 -2 -2 -2 -2 -2 -2 -2 -2 -1 -1
-7 -7 -7 -7 -6 -6 -5 -5 -5 -5 -6 -6 -6 -6 -6 -6 -6 -6 -6 -6 -6 -6 -6 -6 -5 -5 -5 -5 -4 -4 -4 -4 -4 -3 -3 -3 -3 -3 -2 -2 -2 -2 -2 -2
-8 -8 -8 -7 -7 -6 -6 -6 -6 -6 -6 -6 -6 -6 -6 -6 -7 -7 -7 -7 -7 -7 -6 -6 -6 -6 -6 -5 -5 -5 -5 -4 -4 -4 -4 -3 -3 -3 -3 -3 -3 -3 -3 -2
-8 -8 -8 -8 -7 -7 -7 -6 -6 -6 -6 -7 -7 -7 -7 -7 -7 -7 -7 -7 -7 -7 -7 -7 -6 -6 -6 -6 -5 -5 -5 -5 -5 -4 -4 -4 -4 -4 -4 -3 -3 -3 -3 -3
Wind_Speed
1 2 6 8 9 6 5 6 7 6 4 4 8 9 7 5 3 4 4 4 5 5 3 2 3 4 5 5 6 6 6 6 5 4 4 3 3 3 3 4 6 7 8 9
1 6 8 5 5 5 5 6 7 5 4 4 5 7 6 4 5 4 4 3 4 2 1 2 2 3 4 5 5 6 6 6 6 5 4 3 3 3 3 3 5 7 7 8
6 5 3 3 4 6 7 7 6 5 4 2 1 4 2 2 1 2 1 1 2 4 3 2 2 2 2 3 5 5 6 5 5 5 4 3 2 2 2 3 3 5 7 8
5 5 3 3 4 5 7 6 6 5 2 3 2 3 3 2 2 3 2 2 1 1 2 2 2 1 1 2 2 4 5 5 4 5 6 6 5 4 4 4 4 4 6 7
5 4 3 5 5 4 5 4 5 4 4 3 2 3 4 1 1 2 2 2 1 1 1 2 2 2 1 1 1 2 3 3 4 5 6 7 5 4 3 3 5 5 5 6
4 3 1 2 3 3 2 1 1 1 2 5 6 5 3 0 1 1 2 3 3 2 2 2 2 2 2 2 1 2 3 3 3 4 5 6 6 6 5 5 5 5 4 4
5 4 2 1 2 2 2 3 1 0 2 5 4 4 2 1 1 1 0 1 2 2 2 3 3 3 2 2 1 1 3 3 3 4 4 5 6 7 7 7 7 6 4 4
3 5 4 3 1 3 2 4 4 4 4 2 1 4 1 2 3 3 3 2 3 3 2 2 2 2 2 1 1 0 2 3 3 3 4 4 5 5 5 6 6 6 5 5
2 5 5 5 3 2 2 3 3 2 1 1 2 1 1 7 7 7 6 6 5 4 4 3 3 3 2 2 2 1 1 2 3 3 3 4 5 5 5 5 5 5 5 4
1 4 6 5 4 3 1 2 2 2 3 3 1 1 1 5 5 6 5 5 5 5 5 4 4 3 3 2 2 2 1 1 2 3 3 3 4 5 5 4 5 5 5 5
2 1 5 4 3 2 3 1 0 2 2 3 2 1 2 1 2 3 3 4 4 5 5 4 4 4 3 3 3 3 2 1 1 2 2 3 3 4 4 4 5 5 5 6
2 1 2 3 2 3 3 1 1 2 1 1 2 1 4 4 4 3 3 4 4 5 5 5 5 4 4 4 4 4 3 2 2 2 2 2 3 4 5 5 5 5 5 6
2 2 3 4 4 7 5 5 2 1 2 1 2 2 6 7 7 6 5 5 5 5 6 6 5 5 4 4 4 4 3 2 2 2 1 2 3 4 5 5 5 5 5 6
3 2 2 2 1 3 5 7 5 3 2 1 1 3 6 7 8 7 5 5 4 5 5 6 6 6 5 5 4 4 3 3 2 2 1 1 2 3 4 4 4 5 5 6
3 1 1 1 2 2 5 6 6 4 1 2 2 2 4 6 5 5 5 5 6 6 7 6 6 6 6 6 5 5 4 3 3 2 2 2 2 2 3 3 4 4 5 5
3 0 0 1 1 4 7 7 5 4 3 1 2 3 5 6 5 6 6 5 6 6 7 7 7 6 6 6 6 6 5 4 3 2 2 2 1 1 2 3 3 4 4 4
2 1 1 2 3 3 5 5 3 3 3 1 1 4 6 7 7 6 5 5 5 6 6 7 7 6 6 6 5 6 5 4 3 3 3 2 1 1 1 2 3 4 4 4
0 0 1 1 3 0 2 3 3 2 4 5 4 6 7 6 5 4 4 4 5 6 6 6 6 6 6 6 6 5 5 4 3 3 3 2 1 1 1 2 3 3 3 3
1 2 1 1 0 2 3 5 5 1 3 6 6 8 8 7 5 4 5 5 5 5 5 5 5 6 6 6 6 5 5 4 4 4 3 3 2 1 1 1 1 2 3 3
4 4 3 1 1 1 4 8 8 0 2 6 7 8 8 7 5 6 8 7 6 6 5 5 5 6 6 6 6 5 4 4 5 5 4 3 1 0 1 1 1 1 2 2
4 3 2 1 1 2 4 9 4 2 4 8 7 7 6 4 4 6 7 6 5 6 6 5 5 5 5 6 6 5 5 5 5 5 4 3 2 0 0 0 1 1 2 2
1 1 1 1 1 3 6 5 2 3 5 6 6 5 5 6 7 7 7 7 6 7 7 6 5 5 5 5 5 5 6 6 5 4 4 4 3 2 1 1 1 1 2 2
1 1 2 2 3 3 2 2 3 4 5 5 6 6 6 6 7 8 8 6 6 6 6 6 5 6 6 6 5 5 6 6 5 4 4 4 4 3 2 1 1 1 1 2
4 2 0 1 3 4 4 4 5 4 5 6 6 6 5 6 7 7 7 6 6 6 6 6 6 6 7 7 6 6 6 6 5 4 4 4 4 3 3 2 1 1 0 1
3 3 2 3 5 6 5 5 6 7 7 6 6 6 5 6 7 7 6 6 6 6 6 5 5 6 7 6 6 6 6 6 5 5 4 4 4 3 3 3 2 1 1 0
1 1 2 4 5 4 7 6 6 6 7 7 7 7 7 6 6 7 6 5 5 5 5 5 6 6 6 6 6 7 6 5 5 4 4 3 3 3 3 3 3 4 3 3
Wind_Direction
181 148 214 216 216 232 230 230 243 241 248 209 226 245 250 250 240 232 220 204 204 210 211 157 161 158 150 151 153 161 161 163 155 153 156 163 176 173 167 168 170 170 168 166
54 234 234 232 233 242 249 249 253 272 276 231 237 254 249 237 215 208 201 207 196 189 137 110 107 132 154 163 163 164 169 171 172 174 173 168 167 173 176 170 170 174 170 168
221 247 242 231 233 231 238 232 233 248 302 297 223 292 270 283 114 59 52 116 158 164 170 151 127 131 143 169 179 178 175 176 176 167 146 126 107 113 167 186 191 184 174 173
260 272 263 240 241 224 246 239 235 228 227 265 184 254 277 270 31 36 10 20 32 143 152 141 127 120 154 183 181 177 173 174 173 166 168 169 176 186 196 189 190 185 177 176
268 274 249 235 247 227 237 249 233 226 214 245 216 197 280 296 51 339 333 347 6 26 118 127 140 161 131 121 146 173 167 177 176 176 181 181 186 188 177 173 180 188 186 181
272 286 251 249 273 235 250 358 33 70 147 230 214 186 277 228 225 310 360 12 13 19 38 52 57 74 68 68 113 150 165 182 186 182 184 189 187 182 178 186 189 194 191 187
326 319 326 349 358 356 63 93 74 260 218 232 172 165 228 317 18 107 32 2 10 30 48 45 48 44 37 39 78 162 176 191 196 192 195 197 195 191 193 194 195 194 194 198
326 299 322 339 269 225 223 166 175 203 206 244 152 187 184 21 22 37 46 40 33 27 38 44 49 50 32 21 19 224 198 201 201 203 210 204 198 198 201 198 196 197 201 203
291 281 319 328 324 176 186 214 199 163 141 189 216 210 12 21 21 23 26 31 26 16 22 22 19 21 13 4 349 299 226 219 214 214 211 210 205 200 199 196 194 199 200 197
264 280 306 322 353 16 134 164 109 146 173 210 240 254 319 358 5 12 17 21 14 16 19 17 11 4 360 2 353 346 344 263 246 224 215 219 213 204 198 194 198 198 196 190
2 284 312 353 12 357 27 52 79 164 165 169 194 251 350 354 9 17 13 16 13 11 7 4 359 355 0 8 10 0 350 346 312 263 231 220 220 203 198 201 204 197 193 189
340 70 293 289 326 30 58 57 136 170 213 176 164 266 353 14 19 36 25 17 18 18 8 4 3 4 4 4 359 350 341 338 316 296 254 232 222 205 201 205 206 196 193 191
19 41 351 346 0 17 20 13 11 125 112 120 169 268 349 18 19 18 21 15 16 13 7 8 9 5 359 352 346 338 333 332 321 301 258 248 227 210 207 208 203 195 192 191
57 73 127 188 289 357 358 8 20 74 118 141 221 277 332 2 1 357 2 9 12 8 7 6 3 358 356 351 345 339 337 337 323 310 290 268 243 221 212 210 200 193 188 187
58 94 106 301 323 60 37 17 27 53 104 173 254 294 317 334 333 341 353 7 9 5 4 1 355 349 349 350 347 341 335 335 329 320 306 292 273 236 208 205 200 190 186 188
29 89 13 334 14 52 33 13 6 4 11 29 355 331 338 340 360 8 4 8 4 357 356 353 350 347 344 342 339 337 330 330 334 331 313 308 306 276 218 201 185 177 180 183
344 65 42 289 319 11 10 349 356 13 13 29 321 311 337 351 357 353 346 358 352 343 346 348 345 341 335 331 331 333 326 331 335 328 320 316 300 280 243 210 181 176 179 175
205 104 155 322 25 351 255 338 9 28 27 24 14 350 341 327 320 328 347 352 341 339 339 340 341 340 337 333 331 332 336 344 341 336 336 331 303 266 235 188 182 183 173 170
185 153 103 86 114 281 327 345 340 322 349 4 356 342 338 333 336 344 352 346 332 333 334 334 334 334 336 336 333 338 349 354 354 345 336 324 300 251 191 186 190 179 163 163
31 65 99 100 124 264 296 311 313 248 317 338 342 335 334 348 344 321 330 336 340 344 342 341 341 345 345 340 340 350 355 359 350 334 321 323 313 190 172 202 202 161 149 156
11 25 53 111 192 274 309 319 353 78 297 315 320 321 327 325 293 302 320 333 339 341 342 344 347 348 344 342 350 358 357 349 336 333 338 347 353 1 105 68 50 125 130 130
36 38 11 79 146 279 325 4 30 280 298 314 321 325 325 319 320 328 332 337 344 348 350 356 355 348 345 349 358 1 353 342 342 350 0 5 7 5 27 78 72 91 122 127
41 214 203 187 210 270 314 316 298 304 310 316 321 319 323 325 330 335 336 339 343 347 351 355 355 351 351 354 359 356 347 348 352 4 7 6 13 17 30 65 97 106 125 127
334 338 91 291 284 297 313 326 334 332 317 312 316 320 327 326 327 332 333 337 343 345 347 353 357 356 352 351 355 351 346 351 0 4 5 7 11 10 15 19 29 79 143 152
293 329 327 291 303 321 324 329 326 327 328 331 334 335 332 330 330 331 332 335 337 341 344 351 353 349 345 349 354 353 352 357 5 6 5 6 6 5 12 15 17 21 360 246
310 260 255 261 279 282 290 307 322 326 329 330 332 334 336 332 325 328 327 328 331 335 341 348 349 346 345 351 353 353 353 0 9 7 7 7 7 8 10 14 17 31 41 40
Height
1477 1481 1480 1478 1478 1478 1478 1478 1478 1476 1473 1474 1476 1475 1474 1473 1473 1473 1474 1475 1476 1478 1480 1482 1484 1486 1488 1490 1493 1495 1498 1500 1502 1504 1505 1507 1509 1511 1513 1515 1517 1518 1520 1522
1480 1479 1475 1475 1476 1477 1478 1479 1478 1476 1473 1473 1474 1474 1472 1471 1471 1471 1472 1473 1474 1475 1477 1479 1481 1483 1485 1487 1490 1492 1494 1496 1499 1501 1503 1504 1506 1508 1510 1512 1514 1516 1517 1519
1479 1475 1473 1474 1475 1476 1475 1478 1477 1476 1474 1472 1474 1475 1473 1470 1470 1471 1471 1472 1472 1473 1474 1476 1478 1480 1482 1485 1487 1489 1491 1493 1495 1498 1500 1501 1503 1505 1507 1508 1510 1512 1514 1516
1478 1473 1472 1473 1473 1474 1474 1472 1473 1474 1477 1479 1476 1482 1476 1472 1472 1472 1471 1471 1471 1472 1473 1474 1476 1478 1480 1482 1484 1486 1488 1490 1492 1494 1496 1497 1499 1500 1502 1505 1507 1509 1511 1513
1477 1473 1472 1472 1471 1472 1472 1470 1471 1472 1476 1479 1477 1481 1479 1473 1474 1473 1472 1471 1470 1471 1472 1473 1474 1476 1478 1479 1481 1483 1485 1487 1489 1491 1492 1494 1496 1497 1499 1502 1504 1505 1507 1509
1476 1472 1472 1471 1470 1470 1469 1471 1471 1475 1477 1480 1476 1480 1481 1477 1474 1473 1472 1471 1470 1470 1471 1472 1473 1474 1475 1477 1478 1480 1482 1483 1485 1487 1489 1490 1492 1494 1496 1497 1499 1501 1503 1505
1479 1474 1472 1471 1471 1470 1471 1477 1483 1484 1484 1477 1473 1478 1481 1476 1473 1472 1471 1471 1470 1470 1470 1470 1471 1472 1473 1474 1475 1477 1478 1480 1482 1483 1485 1486 1488 1490 1492 1493 1495 1497 1499 1501
1488 1482 1474 1472 1472 1473 1473 1475 1482 1482 1480 1478 1474 1477 1479 1475 1473 1471 1471 1471 1470 1470 1470 1470 1470 1471 1471 1472 1473 1474 1475 1477 1478 1480 1481 1483 1485 1486 1488 1490 1491 1493 1495 1497
1491 1485 1476 1473 1472 1471 1473 1474 1474 1480 1481 1482 1479 1478 1476 1474 1472 1471 1470 1470 1470 1469 1469 1470 1470 1470 1470 1470 1471 1472 1472 1473 1475 1476 1477 1479 1480 1482 1484 1486 1487 1489 1491 1493
1491 1490 1480 1476 1472 1472 1473 1474 1477 1480 1481 1481 1479 1480 1482 1478 1476 1474 1473 1472 1471 1471 1470 1470 1469 1469 1469 1469 1469 1470 1470 1470 1471 1473 1474 1475 1476 1478 1480 1482 1483 1485 1487 1489
1491 1492 1487 1481 1479 1478 1477 1477 1477 1479 1480 1483 1484 1486 1480 1479 1477 1476 1475 1474 1473 1472 1471 1470 1469 1468 1468 1467 1467 1467 1467 1468 1468 1469 1470 1471 1473 1474 1476 1477 1479 1481 1482 1484
1491 1494 1492 1486 1482 1479 1479 1480 1480 1481 1484 1484 1487 1490 1480 1479 1477 1477 1477 1476 1475 1473 1472 1470 1469 1468 1467 1466 1465 1465 1465 1465 1465 1466 1467 1468 1469 1470 1472 1473 1475 1476 1478 1480
1492 1495 1496 1489 1489 1486 1484 1482 1481 1482 1485 1489 1490 1491 1481 1480 1479 1478 1477 1476 1475 1473 1472 1470 1468 1467 1466 1465 1464 1464 1463 1463 1463 1463 1463 1464 1465 1466 1468 1469 1471 1473 1474 1476
1491 1497 1499 1499 1496 1494 1491 1488 1485 1486 1491 1494 1493 1490 1485 1482 1481 1480 1478 1477 1476 1474 1472 1470 1468 1467 1466 1464 1463 1462 1461 1461 1460 1460 1460 1460 1461 1462 1464 1465 1467 1469 1470 1472
1494 1499 1498 1496 1493 1493 1492 1492 1490 1490 1491 1493 1492 1490 1487 1486 1484 1481 1479 1477 1475 1473 1471 1470 1468 1466 1464 1463 1462 1460 1459 1458 1457 1457 1457 1457 1458 1459 1460 1462 1463 1465 1466 1468
1497 1499 1498 1497 1492 1492 1493 1493 1492 1492 1492 1493 1491 1491 1489 1487 1484 1481 1479 1477 1476 1474 1472 1470 1467 1465 1463 1462 1460 1458 1457 1456 1455 1454 1454 1454 1455 1456 1457 1458 1459 1461 1463 1464
1500 1500 1500 1499 1495 1493 1499 1499 1496 1495 1495 1495 1495 1495 1490 1487 1484 1482 1480 1478 1476 1474 1472 1469 1467 1465 1462 1461 1459 1457 1455 1453 1452 1451 1451 1451 1452 1452 1453 1455 1456 1457 1459 1460
1501 1500 1501 1501 1501 1507 1505 1500 1498 1497 1496 1495 1494 1492 1490 1487 1485 1482 1480 1478 1475 1473 1471 1468 1466 1464 1461 1459 1457 1455 1453 1451 1450 1449 1449 1449 1449 1449 1450 1451 1452 1454 1455 1457
1498 1499 1503 1505 1508 1505 1502 1500 1500 1499 1498 1497 1495 1492 1489 1486 1483 1481 1480 1478 1475 1472 1470 1468 1465 1463 1460 1458 1456 1454 1451 1449 1448 1447 1446 1446 1446 1446 1447 1447 1449 1450 1451 1453
1499 1500 1505 1509 1509 1510 1508 1501 1497 1499 1499 1497 1495 1492 1489 1486 1485 1482 1479 1476 1474 1471 1468 1466 1464 1461 1459 1457 1454 1452 1450 1448 1446 1446 1445 1444 1444 1444 1444 1445 1446 1447 1448 1449
1508 1508 1510 1511 1512 1509 1507 1501 1498 1505 1505 1498 1495 1492 1489 1487 1486 1483 1478 1475 1472 1469 1467 1464 1462 1460 1458 1456 1453 1451 1449 1447 1446 1445 1443 1442 1442 1442 1442 1443 1444 1444 1445 1447
1514 1514 1514 1513 1515 1515 1505 1502 1504 1505 1500 1497 1494 1491 1489 1486 1483 1480 1477 1473 1470 1467 1465 1463 1461 1459 1457 1455 1452 1450 1448 1446 1445 1443 1442 1440 1440 1440 1441 1441 1442 1442 1443 1444
1515 1515 1514 1515 1515 1509 1506 1505 1504 1502 1499 1496 1494 1491 1488 1484 1481 1478 1475 1472 1469 1467 1464 1462 1460 1458 1456 1454 1452 1449 1447 1446 1444 1442 1441 1439 1439 1439 1439 1440 1440 1440 1441 1442
1515 1512 1513 1512 1509 1507 1505 1504 1502 1500 1498 1495 1492 1489 1486 1483 1480 1477 1474 1471 1468 1466 1463 1461 1459 1457 1455 1453 1451 1449 1447 1445 1443 1442 1440 1439 1438 1438 1438 1438 1439 1439 1440 1441
1517 1514 1513 1512 1509 1506 1503 1502 1500 1498 1495 1492 1490 1488 1485 1482 1479 1476 1473 1470 1468 1465 1463 1461 1459 1456 1454 1452 1450 1449 1447 1445 1443 1441 1440 1439 1439 1438 1438 1438 1438 1439 1439 1440
1515 1516 1515 1512 1509 1507 1504 1501 1499 1496 1493 1491 1488 1485 1483 1481 1477 1474 1472 1469 1467 1465 1463 1460 1458 1456 1453 1451 1450 1448 1447 1445 1443 1441 1440 1440 1439 1438 1438 1437 1438 1438 1439 1439